Overview Statistics Trail Chart Weather Telemetry Raw packets
 

This is the latest recevied weather packets stored in our database for station/object KC5TIL. If no packets are shown the sender has not sent any weather packets the latest 10 day(s).

<< 33 34 35 36 37 38 39 >>
Time Temp. Humidity Pressure Rain* Wind** Luminosity Snow
1788382275 36.67° C 43% 1012.8 hPa 0 mm - 556 W/m² -
1788381974 36.67° C 41% 1012.8 hPa 0 mm - 547 W/m² -
1788381669 36.67° C 43% 1012.8 hPa 0 mm - 534 W/m² -
1788381365 36.67° C 44% 1012.8 hPa 0 mm - 560 W/m² -
1788381064 37.22° C 43% 1013.1 hPa 0 mm - 566 W/m² -
1788380760 37.22° C 42% 1013.2 hPa 0 mm - 489 W/m² -
1788380456 37.22° C 43% 1013 hPa 0 mm - 439 W/m² -
1788380152 36.67° C 47% 1013.1 hPa 0 mm - 452 W/m² -
1788379851 36.67° C 46% 1013.1 hPa 0 mm - 512 W/m² -
1788379546 36.67° C 48% 1013.2 hPa 0 mm - 583 W/m² -
1788379243 36.11° C 44% 1013.6 hPa 0 mm - 570 W/m² -
1788378938 36.11° C 45% 1013.4 hPa 0 mm - 552 W/m² -
1788378636 36.67° C 45% 1013.4 hPa 0 mm - 576 W/m² -
1788378331 36.67° C 43% 1013.5 hPa 0 mm - 601 W/m² -
1788378026 37.22° C 41% 1013.9 hPa 0 mm - 623 W/m² -
1788377722 36.67° C 42% 1013.7 hPa 0 mm - 645 W/m² -
1788377435 36.67° C 44% 1013.9 hPa 0 mm - 661 W/m² -
1788377120 36.11° C 45% 1014 hPa 0 mm - 643 W/m² -
1788376819 36.11° C 45% 1014.2 hPa 0 mm - 625 W/m² -
1788376515 36.11° C 43% 1014.1 hPa 0 mm - 619 W/m² -
1788376209 36.67° C 44% 1014.4 hPa 0 mm - 611 W/m² -
1788375905 36.11° C 43% 1014.5 hPa 0 mm - 630 W/m² -
1788375600 36.11° C 42% 1014.5 hPa 0 mm - 642 W/m² -
1788375296 36.11° C 45% 1014.4 hPa 0 mm - 665 W/m² -
1788374991 36.11° C 44% 1014.5 hPa 0 mm - 682 W/m² -

* Rain latest hour (hover to see other rain measurements)
** Current wind speed in m/s (hover to see current wind gust speed)